Weather History for George, George Airport, South Africa

Change the Weather History Date:

Sunday, January 6, 2013

  Actual Average Record
Temperature  
Mean Temperature 67 °F -  
Max Temperature 75 °F 74 °F - ()
Min Temperature 59 °F 58 °F - ()
Cooling Degree Days 2    
Growing Degree Days 17 (Base 50)    
Moisture  
Dew Point 59 °F    
Average Humidity 74    
Maximum Humidity 88    
Minimum Humidity 51    
Precipitation  
Precipitation 0.00 in - - ()
Sea Level Pressure  
Sea Level Pressure 29.96 in    
Wind  
Wind Speed 7 mph ()    
Max Wind Speed 14 mph    
Max Gust Speed -    
Visibility 7.2 miles    
Events      
T = Trace of Precipitation, MM = Missing Value Source: Averaged Metar Reports

Daily Weather History Graph

Daily Weather History Graph

Search for Another Location

Airport:

Trip Planner

Search our weather history database for the weather conditions in past years. The results will help you decide how hot, cold, wet, or windy it might be!

Date:

Astronomy

Jan. 06, 2013 Rise Set
Actual Time 5:26 AM SAST 7:45 PM SAST
Civil Twilight 4:58 AM SAST 8:14 PM SAST
Nautical Twilight 4:22 AM SAST 8:49 PM SAST
Astronomical Twilight 3:43 AM SAST 9:28 PM SAST
Moon 12:26 AM SAST (1/6) 2:07 PM SAST (1/6)
Length of Visible Light 15h 16m
Length of Day
14h 18m
Last Quarter, 36% of the Moon is Illuminated
Jan 6
Last Quarter
Jan 11
New
Jan 19
First Quarter
Jan 27
Full
Feb 3
Last Quarter

Hourly Weather History & Observations

Time (SAST) Temp. Dew Point Humidity Pressure Visibility Wind Dir Wind Speed Gust Speed Precip Events Conditions
12:00 AM 60.8 °F 57.2 °F 88% 29.83 in - WNW 6.9 mph - N/A   Clear
1:00 AM 60.8 °F 57.2 °F 88% 29.86 in 6.2 mi NW 8.1 mph - N/A   Overcast
2:00 AM 62 °F 58 °F 81% 29.86 in 6 mi WNW 8.1 mph - -  
2:00 AM 62.6 °F 57.2 °F 82% 29.86 in 6.2 mi WNW 6.9 mph - N/A   Overcast
3:00 AM 62.6 °F 57.2 °F 82% 29.86 in 6.2 mi NW 6.9 mph - N/A   Mostly Cloudy
4:00 AM 62.6 °F 59.0 °F 88% 29.86 in 6.2 mi NW 8.1 mph - N/A   Overcast
5:00 AM 64 °F 59 °F 77% 29.87 in 12 mi WNW 6.9 mph - -   Overcast
5:00 AM 64.4 °F 59.0 °F 83% 29.89 in 6.2 mi NW 5.8 mph - N/A   Overcast
6:00 AM 62.6 °F 57.2 °F 82% 29.89 in 6.2 mi NW 9.2 mph - N/A   Mostly Cloudy
7:00 AM 64.4 °F 57.2 °F 77% 29.95 in 6.2 mi WNW 12.7 mph - N/A   Mostly Cloudy
8:00 AM 65 °F 58 °F 73% 29.95 in 12 mi WNW 13.8 mph - -   Mostly Cloudy
8:00 AM 66.2 °F 59.0 °F 78% 29.95 in 6.2 mi WNW 10.4 mph - N/A   Mostly Cloudy
9:00 AM 69.8 °F 59.0 °F 68% 29.95 in 6.2 mi WNW 9.2 mph - N/A   Mostly Cloudy
10:00 AM 71.6 °F 60.8 °F 69% 29.98 in 6.2 mi WNW 10.4 mph - N/A   Mostly Cloudy
11:00 AM 73 °F 59 °F 52% 29.96 in 12 mi SW 8.1 mph - -   Mostly Cloudy
11:00 AM 71.6 °F 59.0 °F 64% 29.98 in 6.2 mi SW 9.2 mph - N/A   Mostly Cloudy
12:00 PM 69.8 °F 60.8 °F 73% 29.98 in 6.2 mi SSW 13.8 mph - N/A   Scattered Clouds
1:00 PM 71.6 °F 60.8 °F 69% 30.01 in 6.2 mi SSW 10.4 mph - N/A   Mostly Cloudy
2:00 PM 72 °F 62 °F 63% 30.01 in 12 mi South 9.2 mph - -   Mostly Cloudy
2:00 PM 71.6 °F 62.6 °F 73% 30.01 in 6.2 mi South 8.1 mph - N/A   Mostly Cloudy
3:00 PM 71.6 °F 59.0 °F 64% 30.01 in 6.2 mi South 10.4 mph - N/A   Mostly Cloudy
4:00 PM 71.6 °F 60.8 °F 69% 30.01 in 6.2 mi South 10.4 mph - N/A   Mostly Cloudy
5:00 PM 71 °F 57 °F 51% 30.03 in 12 mi South 9.2 mph - -   Mostly Cloudy
5:00 PM 71.6 °F 59.0 °F 64% 30.01 in 6.2 mi South 9.2 mph - N/A   Mostly Cloudy
6:00 PM 69.8 °F 59.0 °F 68% 30.04 in 6.2 mi South 8.1 mph - N/A   Scattered Clouds
7:00 PM 68.0 °F 59.0 °F 73% 30.04 in 6.2 mi South 5.8 mph - N/A   Mostly Cloudy
8:00 PM 66.2 °F 59.0 °F 78% 30.06 in 6.2 mi South 2.3 mph - N/A   Scattered Clouds
9:00 PM 66.2 °F 60.8 °F 83% 30.06 in 6.2 mi SSW 2.3 mph - N/A   Mostly Cloudy
10:00 PM 62.6 °F 57.2 °F 82% 30.09 in - North 3.5 mph - N/A   Clear
11:00 PM 60.8 °F 57.2 °F 88% 30.09 in 6.2 mi WNW 3.5 mph - N/A   Scattered Clouds